Location: Cucq
(50.4773°N, 1.6202°E)
Time: 04:05:54
(UTC+00:00)

Cosmos 2322 Rocket - Pass Details

Date: 07 August 2020
Orbit: 831 x 852 km, 71.0° (Epoch: 19 September)

Event Time Altitude Azimuth Distance (km) Brightness Sun altitude
Rises 00:09:30 0° 321° (NW) 3,419 6.1 -23.1°
Reaches altitude 10° 00:12:31 10° 305° (NW) 2,482 5.0 -23.1°
Maximum altitude 00:16:35 21° 260° (W) 1,846 3.8 -23.1°
Enters shadow 00:17:08 20° 252° (WSW) 1,859 3.8 -23.1°
